This demonstration page uses our WeatherBlox Daily Observations layout. Learn more.

Hourly Observations for November 25, 2020

Temp ( °F °C ) Dew Point ( °F °C ) Humidity (%) Winds ( mph kmh ) Pressure ( in mb ) Visibility ( mi km ) Precip ( " mm )
12:15 am 00:15 Clear 33 0.7 24 -4.5 69 69 N 14 22 29.96 1014 10 16.0934 0 0
12:35 am 00:35 Clear 33 0.3 24 -4.5 70 70 N 12 19 29.97 1015 10 16.0934 0 0
12:55 am 00:55 Clear 32 0 24 -4.6 71 71 N 10 17 29.99 1016 10 16.0934 0 0
1:15 am 01:15 Clear 31 -0.6 24 -4.5 75 75 N 9 15 30 1016 10 16.0934 0 0
1:35 am 01:35 Clear 31 -0.6 24 -4.7 74 74 N 8 13 30 1016 10 16.0934 0 0
1:55 am 01:55 Clear 30 -1 23 -5 75 75 N 8 13 30 1016 10 16.0934 0 0
2:15 am 02:15 Clear 30 -1 23 -5.2 73 73 NNW 9 15 30.01 1016 10 16.0934 0 0
2:35 am 02:35 Clear 30 -1.3 22 -5.3 75 75 WNW 5 7 30.02 1016 10 16.0934 0 0
2:55 am 02:55 Clear 27 -2.6 22 -5.5 81 81 NW 7 11 30.04 1017 10 16.0934 0 0
3:15 am 03:15 Clear 26 -3.2 22 -5.6 84 84 NW 7 11 30.05 1017 10 16.0934 0 0
3:35 am 03:35 Clear 26 -3.5 22 -5.8 84 84 NW 5 7 30.06 1018 10 16.0934 0 0
3:55 am 03:55 Clear 27 -3 22 -5.6 82 82 NW 8 13 30.05 1018 10 16.0934 0 0
4:15 am 04:15 Clear 27 -3 22 -5.7 82 82 NW 8 13 30.04 1017 10 16.0934 0 0
4:35 am 04:35 Clear 26 -3.6 21 -6.2 82 82 NW 7 11 30.05 1018 10 16.0934 0 0
4:55 am 04:55 Clear 25 -3.7 21 -6 84 84 WNW 9 15 30.06 1018 10 16.0934 0 0
5:15 am 05:15 Clear 25 -3.8 21 -6.1 84 84 NW 9 15 30.06 1018 10 16.0934 0 0
5:35 am 05:35 Clear 26 -3.1 21 -6.3 79 79 NW 8 13 30.05 1018 10 16.0934 0 0
5:55 am 05:55 Clear 25 -3.8 20 -6.5 82 82 NW 7 11 30.06 1018 10 16.0934 0 0
6:15 am 06:15 Clear 25 -4 20 -6.5 83 83 NW 8 13 30.06 1018 10 16.0934 0 0
6:35 am 06:35 Clear 25 -3.8 20 -6.5 82 82 WNW 8 13 30.06 1018 10 16.0934 0 0
6:55 am 06:55 Clear 25 -4.1 20 -6.7 82 82 WNW 8 13 30.07 1018 10 16.0934 0 0
7:15 am 07:15 Clear 25 -4.1 19 -7 80 80 NW 7 11 30.07 1018 10 16.0934 0 0
7:35 am 07:35 Clear 24 -4.4 19 -7 82 82 WNW 8 13 30.08 1019 10 16.0934 0 0
7:55 am 07:55 Sunny 25 -4.1 19 -7 80 80 WNW 8 13 30.08 1019 10 16.0934 0 0
8:15 am 08:15 Sunny 25 -4.1 19 -7.1 80 80 NW 7 11 30.07 1018 10 16.0934 0 0
8:35 am 08:35 Sunny 27 -2.9 21 -6 79 79 NW 5 7 30.07 1018 10 16.0934 0 0
8:55 am 08:55 Sunny 30 -1.2 22 -5.4 73 73 WNW 7 11 30.07 1018 10 16.0934 0 0
9:15 am 09:15 Sunny 32 -0.1 24 -4.6 72 72 NW 8 13 30.06 1018 10 16.0934 0 0
9:35 am 09:35 Sunny 33 0.7 25 -4.1 71 71 NW 5 7 30.05 1018 10 16.0934 0 0
9:55 am 09:55 Sunny 36 2 26 -3.5 67 67 NW 5 7 30.05 1017 10 16.0934 0 0
10:15 am 10:15 Sunny 37 2.7 25 -3.9 62 62 NW 7 11 30.03 1017 10 16.0934 0 0
10:35 am 10:35 Sunny 39 3.9 25 -3.7 58 58 NW 6 9 30.03 1017 10 16.0934 0 0
10:55 am 10:55 Sunny 41 5.1 26 -3.6 54 54 NW 3 6 30.01 1016 10 16.0934 0 0
11:15 am 11:15 Sunny 43 6 25 -3.9 49 49 W 5 7 30 1016 10 16.0934 0 0
11:35 am 11:35 Sunny 44 6.5 24 -4.6 45 45 WNW 3 6 29.97 1015 10 16.0934 0 0
11:55 am 11:55 Sunny 45 7.1 24 -4.4 44 44 Calm 29.96 1015 10 16.0934 0 0
12:15 pm 12:15 Sunny 47 8.1 22 -5.3 39 39 SW 3 6 29.94 1014 10 16.0934 0 0
12:35 pm 12:35 Sunny 48 8.9 26 -3.2 43 43 SSW 6 9 29.93 1014 10 16.0934 0 0
12:55 pm 12:55 Sunny 49 9.2 24 -4.5 38 38 SW 6 9 29.91 1013 10 16.0934 0 0
1:15 pm 13:15 Sunny 49 9.3 24 -4.6 37 37 SSW 7 11 29.91 1013 10 16.0934 0 0
1:35 pm 13:35 Sunny 49 9.5 23 -4.8 36 36 SW 7 11 29.9 1012 10 16.0934 0 0
1:55 pm 13:55 Sunny 50 10.1 24 -4.6 36 36 WSW 6 9 29.89 1012 10 16.0934 0 0
2:15 pm 14:15 Sunny 50 10.2 24 -4.4 36 36 SW 8 13 29.88 1012 10 16.0934 0 0
2:35 pm 14:35 Sunny 51 10.5 24 -4.5 35 35 SW 8 13 29.87 1011 10 16.0934 0 0
2:55 pm 14:55 Sunny 51 10.7 24 -4.5 34 34 SSW 8 13 29.86 1011 10 16.0934 0 0
3:15 pm 15:15 Sunny 51 10.8 24 -4.5 34 34 SW 8 13 29.86 1011 10 16.0934 0 0
3:35 pm 15:35 Sunny 52 11 24 -4.4 34 34 SW 8 13 29.85 1011 10 16.0934 0 0
3:55 pm 15:55 Sunny 52 11 24 -4.2 34 34 SW 9 15 29.85 1011 10 16.0934 0 0
4:15 pm 16:15 Sunny 51 10.5 25 -4.1 36 36 SSW 8 13 29.86 1011 10 16.0934 0 0
5:15 pm 17:15 Clear 44 6.7 26 -3.5 49 49 S 7 11 29.88 1012 10 16.0934 0 0
5:35 pm 17:35 Clear 42 5.3 26 -3.6 53 53 S 8 13 29.9 1012 10 16.0934 0 0
6:15 pm 18:15 Clear 39 3.9 25 -4 57 57 S 10 17 29.9 1012 10 16.0934 0 0
6:35 pm 18:35 Clear 38 3.4 25 -4 59 59 S 10 17 29.9 1013 10 16.0934 0 0
6:55 pm 18:55 Clear 38 3.1 25 -3.8 61 61 S 8 13 29.91 1013 10 16.0934 0 0
7:15 pm 19:15 Clear 38 3.5 25 -3.7 60 60 S 9 15 29.9 1013 10 16.0934 0 0
7:35 pm 19:35 Clear 37 2.8 25 -3.7 63 63 S 10 17 29.91 1013 10 16.0934 0 0
7:55 pm 19:55 Clear 36 2.2 26 -3.6 66 66 S 9 15 29.91 1013 10 16.0934 0 0
8:15 pm 20:15 Clear 35 1.8 26 -3.5 68 68 S 10 17 29.92 1013 10 16.0934 0 0
8:35 pm 20:35 Clear 35 1.4 26 -3.4 71 71 S 8 13 29.93 1014 10 16.0934 0 0
8:55 pm 20:55 Clear 37 3 26 -3.1 65 65 S 12 19 29.92 1013 10 16.0934 0 0
9:15 pm 21:15 Clear 37 3 26 -3.1 65 65 S 9 15 29.92 1013 10 16.0934 0 0
9:35 pm 21:35 Clear 37 2.6 26 -3.2 66 66 SSW 9 15 29.93 1014 10 16.0934 0 0
9:55 pm 21:55 Clear 35 1.8 26 -3.2 70 70 SSW 7 11 29.95 1014 10 16.0934 0 0
10:15 pm 22:15 Clear 34 1.1 26 -3.1 74 74 SSW 9 15 29.95 1014 10 16.0934 0 0
10:35 pm 22:35 Clear 35 1.8 27 -2.7 72 72 SW 9 15 29.95 1014 10 16.0934 0 0
10:55 pm 22:55 Clear 36 2.2 28 -2.5 71 71 SSW 8 13 29.94 1014 10 16.0934 0 0
11:15 pm 23:15 Clear 35 1.8 28 -2.3 75 75 SW 8 13 29.95 1014 10 16.0934 0 0
11:35 pm 23:35 Clear 37 2.5 28 -2.2 71 71 SSW 8 13 29.94 1014 10 16.0934 0 0
11:55 pm 23:55 Clear 36 2.2 28 -2.2 73 73 SW 10 17 29.94 1014 10 16.0934 0 0

Powered by AerisWeather